Tracking 28790 objects as of 19-Apr-2024
HD Live streaming from Space Station
objects crossing your sky now

STARLINK-1180

Track STARLINK-1180 now!
10-day predictions
STARLINK-1180 is classified as:


NORAD ID: 45076
Int'l Code: 2020-006AJ
Perigee: 365.9 km
Apogee: 367.6 km
Inclination: 53.1 °
Period: 91.7 minutes
Semi major axis: 6737 km
RCS: Unknown
Launch date: January 29, 2020
Source: United States (US)
Launch site: AIR FORCE EASTERN TEST RANGE (AFETR)
Your satellite tracking list
Your tracking list is empty




NASA's NSSDC Master Catalog

Two Line Element Set (TLE):
1 45076U 20006AJ  24110.25001157 -.00055984  00000-0 -45954-3 0  9992
2 45076  53.0529 111.6014 0001306  73.8549  70.6258 15.69748684233316
Source of the keplerian elements: AFSPC